Regional Weather Roundup
Issued by NWS State College, PA

Home | Current Version | Previous Version | Graphics & Text | Print | Product List | Glossary Off
Versions: 1 2 3 4 5 6 7 8 9 10 11 12 13 14 15 16 17 18 19 20 21 22 23 24 25 26 27 28 29 30 31 32 33 34 35 36 37 38 39 40 41 42 43 44 45 46 47 48 49 50

000
ASUS41 KCTP 241703
RWRCTP

REGIONAL WEATHER ROUNDUP
NATIONAL WEATHER SERVICE STATE COLLEGE PA
100 PM EDT THU APR 24 2014

Note: "fair" indicates few or no clouds below 12,000 feet with no
significant weather and/or obstructions to visibility.

* = STATION THAT DOES NOT REPORT PRECIPITATION /E.G. RAIN...SNOW...ETC/
    THUNDER OR FOG.

PAZ002>004-007>009-013>016-020>023-029>032-241800-
WESTERN PENNSYLVANIA

CITY           SKY/WX    TMP DP  RH WIND       PRES   REMARKS
ERIE           SUNNY     45  26  47 NW8       30.17F
MEADVILLE      SUNNY     49  17  28 CALM      30.13F
FRANKLIN*      SUNNY     48  16  27 W6        30.14F
NEW CASTLE     FAIR      50  20  30 NE8       30.14F
BEAVER COUNTY  SUNNY     52  19  28 N5        30.13F
BUTLER*        MOSUNNY   52  21  30 NW8       30.14F
PITTSBURGH INT MOSUNNY   52  17  25 VRB3      30.12F
PITTSBURGH     SUNNY     54  14  20 N6        30.12F
INDIANA*       SUNNY     48  19  32 CALM      30.11F
LATROBE        MOSUNNY   50  21  32 NW7       30.13F
WASHINGTON CO* CLOUDY    52  19  28 CALM      30.15F
$$

PAZ004>006-010>012-017>019-024>028-033>037-041-042-045-046-049>053-241800-
CENTRAL PENNSYLVANIA

CITY           SKY/WX    TMP DP  RH WIND       PRES   REMARKS
BRADFORD       SUNNY     48  11  22 N13G18    30.09F
DUBOIS         SUNNY     51  14  22 NW9       30.08F
CLEARFIELD     SUNNY     52  14  22 VRB7      30.08F
JOHNSTOWN      MOSUNNY   47  16  29 NW8       30.07F
ALTOONA        SUNNY     53  18  25 VRB6G17   30.08F
STATE COLLEGE  SUNNY     55  10  16 N12G17    30.07F
WILLIAMSPORT   SUNNY     56  17  21 NW13G20   30.05F
SELINSGROVE    SUNNY     57  18  21 N12G21    30.06F
FT INDIANTOWN  SUNNY     55  15  21 N10G21    30.04F
CAPITAL CITY   SUNNY     55  16  21 NW12G17   30.06F
HARRISBURG     SUNNY     62  18  18 W6        30.05F
YORK           SUNNY     55  18  23 NW13      30.06F
$$

PAZ038>040-043-044-047-048-054-055-060>062-067>071-241800-
EASTERN PENNSYLVANIA

CITY           SKY/WX    TMP DP  RH WIND       PRES   REMARKS
SCRANTON       SUNNY     52  13  21 NW24G35   30.00F
MOUNT POCONO   SUNNY     47  14  26 NW15G30   29.95
ALLENTOWN      SUNNY     56  16  20 NW20G28   29.99F
QUAKERTOWN*    SUNNY     54  18  24 W13G20    29.99F
READING        SUNNY     56  20  24 NW16G25   30.02F
LANCASTER      SUNNY     54  19  25 N14G26    30.04F
COATESVILLE    SUNNY     54  18  24 NW16G26   30.03F
POTTSTOWN      SUNNY     55  19  24 N9G23     30.01F
BLUE BELL      SUNNY     55  19  24 NW10G18   29.99F
DOYLESTOWN     SUNNY     55  20  25 NW13G24   29.97F
WILLOW GROVE   NOT AVBL
NORTH PHILA    SUNNY     58  17  20 NW15G30   30.01F
PHILADELPHIA   MOSUNNY   56  14  19 NW20      30.02F
$$



USA.gov is the U.S. government's official web portal to all federal, state and local government web resources and services.